Time,TemperatureF,DewpointF,PressureIn,WindDirection,WindDirectionDegrees,WindSpeedMPH,WindSpeedGustMPH,Humidity,HourlyPrecipIn,Conditions,Clouds,dailyrainin,SoftwareType,DateUTC
2013-04-22 00:02:00,33.2,29.2,31.37,NNW,343,0.0,0.0,85,0.00,CLR,CLR,0.00,WeatherDisplay:10.37,2013-04-22 04:02:00,
2013-04-22 00:07:00,33.0,29.3,31.37,NNW,343,0.0,0.0,86,0.00,CLR,CLR,0.00,WeatherDisplay:10.37,2013-04-22 04:07:00,
2013-04-22 00:12:00,32.9,29.2,31.37,NNW,343,0.0,0.0,86,0.00,CLR,CLR,0.00,WeatherDisplay:10.37,2013-04-22 04:12:00,
2013-04-22 00:17:00,32.9,29.2,31.37,NNW,343,0.0,0.0,86,0.00,CLR,CLR,0.00,WeatherDisplay:10.37,2013-04-22 04:17:00,
2013-04-22 00:22:00,32.9,29.1,31.37,NNW,343,0.0,0.0,86,0.00,CLR,CLR,0.00,WeatherDisplay:10.37,2013-04-22 04:22:00,
2013-04-22 00:32:00,32.8,29.4,31.37,NNW,343,0.0,0.0,87,0.00,CLR,CLR,0.00,WeatherDisplay:10.37,2013-04-22 04:32:00,
2013-04-22 00:37:00,32.7,29.3,31.37,NNW,343,0.0,0.0,87,0.00,CLR,CLR,0.00,WeatherDisplay:10.37,2013-04-22 04:37:00,
2013-04-22 00:42:00,32.6,29.2,31.37,NNW,343,0.0,0.0,87,0.00,CLR,CLR,0.00,WeatherDisplay:10.37,2013-04-22 04:42:00,
2013-04-22 00:47:00,32.5,29.1,31.37,NNW,343,0.0,0.0,87,0.00,CLR,CLR,0.00,WeatherDisplay:10.37,2013-04-22 04:47:00,
2013-04-22 00:52:00,32.4,29.0,31.37,NNW,343,0.0,0.0,87,0.00,CLR,CLR,0.00,WeatherDisplay:10.37,2013-04-22 04:52:00,
2013-04-22 00:57:00,32.3,29.1,31.37,NNW,343,0.0,0.0,88,0.00,CLR,CLR,0.00,WeatherDisplay:10.37,2013-04-22 04:57:00,
2013-04-22 01:02:00,32.3,29.1,31.37,NNW,343,0.0,0.0,88,0.00,CLR,CLR,0.00,WeatherDisplay:10.37,2013-04-22 05:02:00,
2013-04-22 01:07:00,32.4,29.5,31.36,NNW,343,0.0,0.0,89,0.00,CLR,CLR,0.00,WeatherDisplay:10.37,2013-04-22 05:07:00,
2013-04-22 01:12:00,32.4,29.5,31.36,NNW,343,0.0,0.0,89,0.00,CLR,CLR,0.00,WeatherDisplay:10.37,2013-04-22 05:12:00,
2013-04-22 01:17:00,32.4,29.5,31.36,NNW,343,0.0,0.0,89,0.00,CLR,CLR,0.00,WeatherDisplay:10.37,2013-04-22 05:17:00,
2013-04-22 01:22:00,32.4,29.8,31.36,NNW,343,0.0,0.0,90,0.00,CLR,CLR,0.00,WeatherDisplay:10.37,2013-04-22 05:22:00,
2013-04-22 01:27:00,32.5,29.9,31.36,NNW,343,0.0,0.0,90,0.00,CLR,CLR,0.00,WeatherDisplay:10.37,2013-04-22 05:27:00,
2013-04-22 01:32:00,32.5,29.9,31.35,NNW,343,0.0,0.0,90,0.00,CLR,CLR,0.00,WeatherDisplay:10.37,2013-04-22 05:32:00,
2013-04-22 01:37:00,32.4,29.8,31.35,NNW,343,0.0,0.0,90,0.00,CLR,CLR,0.00,WeatherDisplay:10.37,2013-04-22 05:37:00,
2013-04-22 01:42:00,32.4,29.5,31.35,NNW,343,0.0,0.0,89,0.00,CLR,CLR,0.00,WeatherDisplay:10.37,2013-04-22 05:42:00,
2013-04-22 01:47:00,32.3,29.7,31.35,NNW,343,0.0,0.0,90,0.00,CLR,CLR,0.00,WeatherDisplay:10.37,2013-04-22 05:47:00,
2013-04-22 01:52:00,32.3,29.7,31.35,NNW,343,0.0,0.0,90,0.00,CLR,CLR,0.00,WeatherDisplay:10.37,2013-04-22 05:52:00,
2013-04-22 01:57:00,32.3,29.7,31.35,NNW,343,0.0,0.0,90,0.00,CLR,CLR,0.00,WeatherDisplay:10.37,2013-04-22 05:57:00,
2013-04-22 02:02:00,32.2,29.6,31.35,NNW,343,0.0,0.0,90,0.00,CLR,CLR,0.00,WeatherDisplay:10.37,2013-04-22 06:02:00,
2013-04-22 02:07:00,32.1,29.5,31.34,NNW,343,0.0,0.0,90,0.00,CLR,CLR,0.00,WeatherDisplay:10.37,2013-04-22 06:07:00,
2013-04-22 02:12:00,32.1,29.5,31.34,NNW,343,0.0,0.0,90,0.00,CLR,CLR,0.00,WeatherDisplay:10.37,2013-04-22 06:12:00,
2013-04-22 02:17:00,32.0,29.4,31.34,NNW,343,0.0,0.0,90,0.00,CLR,CLR,0.00,WeatherDisplay:10.37,2013-04-22 06:17:00,
2013-04-22 02:22:00,32.0,29.4,31.34,NNW,343,0.0,0.0,90,0.00,CLR,CLR,0.00,WeatherDisplay:10.37,2013-04-22 06:22:00,
2013-04-22 02:27:00,32.0,29.7,31.34,NNW,343,0.0,0.0,91,0.00,CLR,CLR,0.00,WeatherDisplay:10.37,2013-04-22 06:27:00,
2013-04-22 02:32:00,31.9,29.3,31.34,NNW,343,0.0,0.0,90,0.00,CLR,CLR,0.00,WeatherDisplay:10.37,2013-04-22 06:32:00,
2013-04-22 02:37:00,31.8,29.2,31.34,NNW,343,0.0,0.0,90,0.00,CLR,CLR,0.00,WeatherDisplay:10.37,2013-04-22 06:37:00,
2013-04-22 02:42:00,31.7,29.4,31.34,NNW,343,0.0,0.0,91,0.00,CLR,CLR,0.00,WeatherDisplay:10.37,2013-04-22 06:42:00,
2013-04-22 02:47:00,31.6,29.3,31.33,NNW,343,0.0,0.0,91,0.00,CLR,CLR,0.00,WeatherDisplay:10.37,2013-04-22 06:47:00,
2013-04-22 02:52:00,31.5,29.2,31.33,NNW,343,0.0,0.0,91,0.00,CLR,CLR,0.00,WeatherDisplay:10.37,2013-04-22 06:52:00,
2013-04-22 02:57:00,31.4,29.1,31.33,NNW,343,0.0,0.0,91,0.00,CLR,CLR,0.00,WeatherDisplay:10.37,2013-04-22 06:57:00,
2013-04-22 03:02:00,31.3,29.0,31.33,NNW,343,0.0,0.0,91,0.00,CLR,CLR,0.00,WeatherDisplay:10.37,2013-04-22 07:02:00,
2013-04-22 03:12:00,31.0,28.7,31.32,NNW,343,0.0,0.0,91,0.00,CLR,CLR,0.00,WeatherDisplay:10.37,2013-04-22 07:12:00,
2013-04-22 03:17:00,30.8,28.5,31.32,NNW,343,0.0,0.0,91,0.00,CLR,CLR,0.00,WeatherDisplay:10.37,2013-04-22 07:17:00,
2013-04-22 03:22:00,30.6,28.6,31.32,NNW,343,0.0,0.0,92,0.00,CLR,CLR,0.00,WeatherDisplay:10.37,2013-04-22 07:22:00,
2013-04-22 03:27:00,30.4,28.4,31.32,NNW,343,0.0,0.0,92,0.00,CLR,CLR,0.00,WeatherDisplay:10.37,2013-04-22 07:27:00,
2013-04-22 03:32:00,30.1,28.1,31.32,NNW,343,0.0,0.0,92,0.00,CLR,CLR,0.00,WeatherDisplay:10.37,2013-04-22 07:32:00,
2013-04-22 03:37:00,30.0,28.0,31.32,NNW,343,0.0,0.0,92,0.00,CLR,CLR,0.00,WeatherDisplay:10.37,2013-04-22 07:37:00,
2013-04-22 03:42:00,29.9,27.9,31.31,NNW,343,0.0,0.0,92,0.00,CLR,CLR,0.00,WeatherDisplay:10.37,2013-04-22 07:42:00,
2013-04-22 03:47:00,29.9,28.1,31.31,NNW,343,0.0,0.0,93,0.00,CLR,CLR,0.00,WeatherDisplay:10.37,2013-04-22 07:47:00,
2013-04-22 03:52:00,29.8,28.0,31.31,NNW,343,0.0,0.0,93,0.00,CLR,CLR,0.00,WeatherDisplay:10.37,2013-04-22 07:52:00,
2013-04-22 03:57:00,29.8,28.0,31.31,NNW,343,0.0,0.0,93,0.00,CLR,CLR,0.00,WeatherDisplay:10.37,2013-04-22 07:57:00,
2013-04-22 04:02:00,29.7,27.9,31.31,NNW,343,0.0,0.0,93,0.00,CLR,CLR,0.00,WeatherDisplay:10.37,2013-04-22 08:02:00,
2013-04-22 04:07:00,29.5,27.7,31.31,NNW,343,0.0,0.0,93,0.00,CLR,CLR,0.00,WeatherDisplay:10.37,2013-04-22 08:07:00,
2013-04-22 04:12:00,29.4,27.6,31.31,NNW,343,0.0,0.0,93,0.00,CLR,CLR,0.00,WeatherDisplay:10.37,2013-04-22 08:12:00,
2013-04-22 04:17:00,29.3,27.5,31.31,NNW,343,0.0,0.0,93,0.00,CLR,CLR,0.00,WeatherDisplay:10.37,2013-04-22 08:17:00,
2013-04-22 04:22:00,29.2,27.4,31.31,NNW,343,0.0,0.0,93,0.00,CLR,CLR,0.00,WeatherDisplay:10.37,2013-04-22 08:22:00,
2013-04-22 04:27:00,28.9,27.1,31.31,NNW,343,0.0,0.0,93,0.00,CLR,CLR,0.00,WeatherDisplay:10.37,2013-04-22 08:27:00,
2013-04-22 04:32:00,28.8,27.0,31.31,NNW,343,0.0,0.0,93,0.00,CLR,CLR,0.00,WeatherDisplay:10.37,2013-04-22 08:32:00,
2013-04-22 04:37:00,28.9,27.4,31.31,NNW,343,0.0,0.0,94,0.00,CLR,CLR,0.00,WeatherDisplay:10.37,2013-04-22 08:37:00,
2013-04-22 04:42:00,29.0,27.5,31.31,NNW,343,0.0,0.0,94,0.00,CLR,CLR,0.00,WeatherDisplay:10.37,2013-04-22 08:42:00,
2013-04-22 04:47:00,29.0,27.5,31.31,NNW,343,0.0,0.0,94,0.00,CLR,CLR,0.00,WeatherDisplay:10.37,2013-04-22 08:47:00,
2013-04-22 04:52:00,28.9,27.4,31.31,NNW,343,0.0,0.0,94,0.00,CLR,CLR,0.00,WeatherDisplay:10.37,2013-04-22 08:52:00,
2013-04-22 04:57:00,28.8,27.3,31.31,NNW,343,0.0,0.0,94,0.00,CLR,CLR,0.00,WeatherDisplay:10.37,2013-04-22 08:57:00,
2013-04-22 05:02:00,28.8,27.3,31.31,NNW,343,0.0,0.0,94,0.00,CLR,CLR,0.00,WeatherDisplay:10.37,2013-04-22 09:02:00,
2013-04-22 05:07:00,28.7,27.2,31.31,NNW,343,0.0,0.0,94,0.00,CLR,CLR,0.00,WeatherDisplay:10.37,2013-04-22 09:07:00,
2013-04-22 05:12:00,28.6,27.1,31.31,NNW,343,0.0,0.0,94,0.00,CLR,CLR,0.00,WeatherDisplay:10.37,2013-04-22 09:12:00,
2013-04-22 05:17:00,28.6,27.1,31.31,NNW,343,0.0,0.0,94,0.00,CLR,CLR,0.00,WeatherDisplay:10.37,2013-04-22 09:17:00,
2013-04-22 05:22:00,28.6,27.1,31.31,NNW,343,0.0,0.0,94,0.00,CLR,CLR,0.00,WeatherDisplay:10.37,2013-04-22 09:22:00,
2013-04-22 05:27:00,28.5,27.0,31.31,NNW,343,0.0,0.0,94,0.00,CLR,CLR,0.00,WeatherDisplay:10.37,2013-04-22 09:27:00,
2013-04-22 05:32:00,28.5,27.0,31.31,NNW,343,0.0,0.0,94,0.00,CLR,CLR,0.00,WeatherDisplay:10.37,2013-04-22 09:32:00,
2013-04-22 05:37:00,28.5,27.0,31.31,NNW,343,0.0,0.0,94,0.00,CLR,CLR,0.00,WeatherDisplay:10.37,2013-04-22 09:37:00,
2013-04-22 05:42:00,28.3,26.8,31.31,NNW,343,0.0,0.0,94,0.00,CLR,CLR,0.00,WeatherDisplay:10.37,2013-04-22 09:42:00,
2013-04-22 05:47:00,28.1,26.6,31.31,NNW,343,0.0,0.0,94,0.00,CLR,CLR,0.00,WeatherDisplay:10.37,2013-04-22 09:47:00,
2013-04-22 05:52:00,28.0,26.5,31.31,NNW,343,0.0,0.0,94,0.00,CLR,CLR,0.00,WeatherDisplay:10.37,2013-04-22 09:52:00,
2013-04-22 05:57:00,27.9,26.4,31.31,NNW,343,0.0,0.0,94,0.00,CLR,CLR,0.00,WeatherDisplay:10.37,2013-04-22 09:57:00,
2013-04-22 06:02:00,27.8,26.3,31.31,NNW,343,0.0,0.0,94,0.00,CLR,CLR,0.00,WeatherDisplay:10.37,2013-04-22 10:02:00,
2013-04-22 06:07:00,27.6,26.1,31.31,NNW,343,0.0,0.0,94,0.00,CLR,CLR,0.00,WeatherDisplay:10.37,2013-04-22 10:07:00,
2013-04-22 06:12:00,27.6,26.1,31.31,NNW,343,0.0,0.0,94,0.00,CLR,CLR,0.00,WeatherDisplay:10.37,2013-04-22 10:12:00,
2013-04-22 06:17:00,27.5,26.0,31.31,NNW,343,0.0,0.0,94,0.00,CLR,CLR,0.00,WeatherDisplay:10.37,2013-04-22 10:17:00,
2013-04-22 06:22:00,27.6,26.1,31.31,NNW,343,0.0,0.0,94,0.00,CLR,CLR,0.00,WeatherDisplay:10.37,2013-04-22 10:22:00,
2013-04-22 06:27:00,27.5,26.0,31.32,NNW,343,0.0,0.0,94,0.00,CLR,CLR,0.00,WeatherDisplay:10.37,2013-04-22 10:27:00,
2013-04-22 06:32:00,27.5,26.3,31.32,NNW,343,0.0,0.0,95,0.00,CLR,CLR,0.00,WeatherDisplay:10.37,2013-04-22 10:32:00,
2013-04-22 06:37:00,27.4,26.2,31.32,NNW,343,0.0,0.0,95,0.00,CLR,CLR,0.00,WeatherDisplay:10.37,2013-04-22 10:37:00,
2013-04-22 06:42:00,27.4,26.2,31.32,NNW,343,0.0,0.0,95,0.00,CLR,CLR,0.00,WeatherDisplay:10.37,2013-04-22 10:42:00,
2013-04-22 06:47:00,27.4,26.1,31.32,NNW,343,0.0,0.0,95,0.00,CLR,CLR,0.00,WeatherDisplay:10.37,2013-04-22 10:47:00,
2013-04-22 06:52:00,27.5,26.3,31.32,NNW,343,0.0,0.0,95,0.00,CLR,CLR,0.00,WeatherDisplay:10.37,2013-04-22 10:52:00,
2013-04-22 06:57:00,27.5,26.3,31.31,NNW,343,0.0,0.0,95,0.00,CLR,CLR,0.00,WeatherDisplay:10.37,2013-04-22 10:57:00,
2013-04-22 07:02:00,27.5,26.3,31.31,NNW,343,0.0,0.0,95,0.00,CLR,CLR,0.00,WeatherDisplay:10.37,2013-04-22 11:02:00,
2013-04-22 07:07:00,27.6,26.4,31.31,NNW,343,0.0,0.0,95,0.00,CLR,CLR,0.00,WeatherDisplay:10.37,2013-04-22 11:07:00,
2013-04-22 07:12:00,27.7,26.4,31.32,NNW,343,0.0,0.0,95,0.00,CLR,CLR,0.00,WeatherDisplay:10.37,2013-04-22 11:12:00,
2013-04-22 07:17:00,27.8,26.6,31.31,NNW,343,0.0,0.0,95,0.00,CLR,CLR,0.00,WeatherDisplay:10.37,2013-04-22 11:17:00,
2013-04-22 07:22:00,28.1,26.8,31.31,NNW,343,0.0,0.0,95,0.00,CLR,CLR,0.00,WeatherDisplay:10.37,2013-04-22 11:22:00,
2013-04-22 07:27:00,28.3,27.1,31.31,NNW,343,0.0,0.0,95,0.00,CLR,CLR,0.00,WeatherDisplay:10.37,2013-04-22 11:27:00,
2013-04-22 07:32:00,28.7,27.7,31.31,NNW,343,0.0,0.0,96,0.00,CLR,CLR,0.00,WeatherDisplay:10.37,2013-04-22 11:32:00,
2013-04-22 07:37:00,29.1,28.1,31.31,NNW,343,0.0,0.0,96,0.00,CLR,CLR,0.00,WeatherDisplay:10.37,2013-04-22 11:37:00,
2013-04-22 07:42:00,29.4,28.4,31.31,NNW,343,0.0,0.0,96,0.00,CLR,CLR,0.00,WeatherDisplay:10.37,2013-04-22 11:42:00,
2013-04-22 07:47:00,29.7,28.7,31.31,NNW,343,0.0,0.0,96,0.00,CLR,CLR,0.00,WeatherDisplay:10.37,2013-04-22 11:47:00,
2013-04-22 07:52:00,29.9,28.9,31.31,NNW,343,0.0,0.0,96,0.00,CLR,CLR,0.00,WeatherDisplay:10.37,2013-04-22 11:52:00,
2013-04-22 07:57:00,30.3,29.3,31.32,NNW,343,0.0,0.0,96,0.00,CLR,CLR,0.00,WeatherDisplay:10.37,2013-04-22 11:57:00,
2013-04-22 08:02:00,30.7,29.7,31.32,NNW,343,0.0,0.0,96,0.00,CLR,CLR,0.00,WeatherDisplay:10.37,2013-04-22 12:02:00,
2013-04-22 08:07:00,31.0,30.0,31.32,NNW,343,0.0,0.0,96,0.00,CLR,CLR,0.00,WeatherDisplay:10.37,2013-04-22 12:07:00,
2013-04-22 08:12:00,31.6,30.6,31.32,NNW,343,0.0,0.0,96,0.00,CLR,CLR,0.00,WeatherDisplay:10.37,2013-04-22 12:12:00,
2013-04-22 08:17:00,32.0,31.0,31.32,NNW,343,0.0,0.0,96,0.00,CLR,CLR,0.00,WeatherDisplay:10.37,2013-04-22 12:17:00,
2013-04-22 08:22:00,32.6,31.6,31.32,NNW,343,0.0,0.0,96,0.00,CLR,CLR,0.00,WeatherDisplay:10.37,2013-04-22 12:22:00,
2013-04-22 08:27:00,33.5,32.4,31.31,NNW,343,0.0,0.0,96,0.00,CLR,CLR,0.00,WeatherDisplay:10.37,2013-04-22 12:27:00,
2013-04-22 08:32:00,34.2,33.4,31.31,NNW,343,0.0,0.0,97,0.00,CLR,CLR,0.00,WeatherDisplay:10.37,2013-04-22 12:32:00,
2013-04-22 08:37:00,35.2,34.4,31.31,NNW,343,0.0,1.0,97,0.00,CLR,CLR,0.00,WeatherDisplay:10.37,2013-04-22 12:37:00,
2013-04-22 08:42:00,36.5,35.8,31.31,NNW,343,0.0,1.0,97,0.00,CLR,CLR,0.00,WeatherDisplay:10.37,2013-04-22 12:42:00,
2013-04-22 08:47:00,37.9,37.1,31.31,NW,320,0.0,3.0,97,0.00,CLR,CLR,0.00,WeatherDisplay:10.37,2013-04-22 12:47:00,
2013-04-22 08:52:00,39.7,37.8,31.31,SSE,164,2.0,6.0,93,0.00,CLR,CLR,0.00,WeatherDisplay:10.37,2013-04-22 12:52:00,
2013-04-22 08:57:00,41.5,35.8,31.31,SE,143,5.0,8.0,80,0.00,CLR,CLR,0.00,WeatherDisplay:10.37,2013-04-22 12:57:00,
2013-04-22 09:02:00,43.3,35.2,31.31,SE,134,3.0,7.0,73,0.00,CLR,CLR,0.00,WeatherDisplay:10.37,2013-04-22 13:02:00,
2013-04-22 09:07:00,44.8,33.7,31.31,SE,133,6.0,14.0,65,0.00,CLR,CLR,0.00,WeatherDisplay:10.37,2013-04-22 13:07:00,
2013-04-22 09:12:00,45.8,33.1,31.31,ESE,122,6.0,12.0,61,0.00,CLR,CLR,0.00,WeatherDisplay:10.37,2013-04-22 13:12:00,
2013-04-22 09:17:00,46.5,33.3,31.31,SE,140,5.0,12.0,60,0.00,CLR,CLR,0.00,WeatherDisplay:10.37,2013-04-22 13:17:00,
2013-04-22 09:22:00,47.1,33.1,31.31,SSE,154,6.0,12.0,58,0.00,CLR,CLR,0.00,WeatherDisplay:10.37,2013-04-22 13:22:00,
2013-04-22 09:27:00,47.6,34.0,31.30,SE,140,1.0,10.0,59,0.00,CLR,CLR,0.00,WeatherDisplay:10.37,2013-04-22 13:27:00,
2013-04-22 09:32:00,48.3,33.8,31.31,SSE,151,6.0,9.0,57,0.00,CLR,CLR,0.00,WeatherDisplay:10.37,2013-04-22 13:32:00,
2013-04-22 09:37:00,48.5,32.1,31.31,SSE,158,7.0,15.0,53,0.00,CLR,CLR,0.00,WeatherDisplay:10.37,2013-04-22 13:37:00,
2013-04-22 09:42:00,48.8,33.3,31.30,SSE,153,6.0,12.0,55,0.00,CLR,CLR,0.00,WeatherDisplay:10.37,2013-04-22 13:42:00,
2013-04-22 09:47:00,49.2,34.2,31.30,SSE,152,6.0,12.0,56,0.00,CLR,CLR,0.00,WeatherDisplay:10.37,2013-04-22 13:47:00,
2013-04-22 09:52:00,49.5,32.6,31.30,SSE,149,7.0,13.0,52,0.00,CLR,CLR,0.00,WeatherDisplay:10.37,2013-04-22 13:52:00,
2013-04-22 09:57:00,49.8,33.4,31.30,SE,146,5.0,9.0,53,0.00,CLR,CLR,0.00,WeatherDisplay:10.37,2013-04-22 13:57:00,
2013-04-22 10:02:00,50.2,32.7,31.30,SSE,156,6.0,12.0,51,0.00,CLR,CLR,0.00,WeatherDisplay:10.37,2013-04-22 14:02:00,
2013-04-22 10:07:00,50.9,33.4,31.30,SE,144,6.0,12.0,51,0.00,CLR,CLR,0.00,WeatherDisplay:10.37,2013-04-22 14:07:00,
2013-04-22 10:12:00,51.2,33.2,31.30,SSE,152,8.0,15.0,50,0.00,CLR,CLR,0.00,WeatherDisplay:10.37,2013-04-22 14:12:00,
2013-04-22 10:17:00,51.3,34.3,31.30,SSE,164,6.0,12.0,52,0.00,CLR,CLR,0.00,WeatherDisplay:10.37,2013-04-22 14:17:00,
2013-04-22 10:22:00,52.0,34.5,31.30,South,169,6.0,14.0,51,0.00,CLR,CLR,0.00,WeatherDisplay:10.37,2013-04-22 14:22:00,
2013-04-22 10:27:00,52.4,33.8,31.30,SSE,151,6.0,12.0,49,0.00,CLR,CLR,0.00,WeatherDisplay:10.37,2013-04-22 14:27:00,
2013-04-22 10:32:00,52.6,34.4,31.30,SE,142,8.0,13.0,50,0.00,CLR,CLR,0.00,WeatherDisplay:10.37,2013-04-22 14:32:00,
2013-04-22 10:37:00,52.6,33.5,31.30,SSE,152,9.0,13.0,48,0.00,CLR,CLR,0.00,WeatherDisplay:10.37,2013-04-22 14:37:00,
2013-04-22 10:42:00,52.8,35.1,31.30,South,173,8.0,12.0,51,0.00,CLR,CLR,0.00,WeatherDisplay:10.37,2013-04-22 14:42:00,
2013-04-22 10:47:00,53.2,34.5,31.29,South,178,8.0,13.0,49,0.00,CLR,CLR,0.00,WeatherDisplay:10.37,2013-04-22 14:47:00,
2013-04-22 10:52:00,53.2,33.5,31.29,South,170,8.0,15.0,47,0.00,CLR,CLR,0.00,WeatherDisplay:10.37,2013-04-22 14:52:00,
2013-04-22 10:57:00,53.3,34.1,31.29,SSE,158,8.0,15.0,48,0.00,CLR,CLR,0.00,WeatherDisplay:10.37,2013-04-22 14:57:00,
2013-04-22 11:02:00,53.3,34.1,31.29,SE,142,7.0,15.0,48,0.00,CLR,CLR,0.00,WeatherDisplay:10.37,2013-04-22 15:02:00,
2013-04-22 11:07:00,53.8,35.1,31.29,SSE,164,10.0,17.0,49,0.00,CLR,CLR,0.00,WeatherDisplay:10.37,2013-04-22 15:07:00,
2013-04-22 11:12:00,54.1,34.8,31.29,South,179,8.0,16.0,48,0.00,CLR,CLR,0.00,WeatherDisplay:10.37,2013-04-22 15:12:00,
2013-04-22 11:17:00,54.4,35.1,31.29,South,172,10.0,16.0,48,0.00,CLR,CLR,0.00,WeatherDisplay:10.37,2013-04-22 15:17:00,
2013-04-22 11:22:00,54.9,36.1,31.29,SSE,154,6.0,14.0,49,0.00,CLR,CLR,0.00,WeatherDisplay:10.37,2013-04-22 15:22:00,
2013-04-22 11:27:00,55.3,35.4,31.28,ESE,123,6.0,12.0,47,0.00,CLR,CLR,0.00,WeatherDisplay:10.37,2013-04-22 15:27:00,
2013-04-22 11:37:00,55.6,35.6,31.28,SE,140,6.0,13.0,47,0.00,CLR,CLR,0.00,WeatherDisplay:10.37,2013-04-22 15:37:00,
2013-04-22 11:42:00,55.9,35.9,31.28,SE,138,10.0,18.0,47,0.00,CLR,CLR,0.00,WeatherDisplay:10.37,2013-04-22 15:42:00,
2013-04-22 11:47:00,56.1,36.6,31.28,SE,134,8.0,13.0,48,0.00,CLR,CLR,0.00,WeatherDisplay:10.37,2013-04-22 15:47:00,
2013-04-22 11:52:00,56.4,35.9,31.28,SSE,147,3.0,12.0,46,0.00,CLR,CLR,0.00,WeatherDisplay:10.37,2013-04-22 15:52:00,
2013-04-22 11:57:00,57.1,37.6,31.28,SSE,148,8.0,13.0,48,0.00,CLR,CLR,0.00,WeatherDisplay:10.37,2013-04-22 15:57:00,
2013-04-22 12:02:00,57.1,37.1,31.27,SSE,148,6.0,14.0,47,0.00,CLR,CLR,0.00,WeatherDisplay:10.37,2013-04-22 16:02:00,
2013-04-22 12:07:00,57.1,36.5,31.27,SSE,161,7.0,16.0,46,0.00,CLR,CLR,0.00,WeatherDisplay:10.37,2013-04-22 16:07:00,
2013-04-22 12:12:00,57.5,37.4,31.27,SSE,166,8.0,16.0,47,0.00,CLR,CLR,0.00,WeatherDisplay:10.37,2013-04-22 16:12:00,
2013-04-22 12:17:00,57.6,37.0,31.27,SSE,168,8.0,15.0,46,0.00,CLR,CLR,0.00,WeatherDisplay:10.37,2013-04-22 16:17:00,
2013-04-22 12:22:00,57.5,36.3,31.26,SSE,159,6.0,12.0,45,0.00,CLR,CLR,0.00,WeatherDisplay:10.37,2013-04-22 16:22:00,
2013-04-22 12:27:00,57.7,35.4,31.26,SSE,162,7.0,16.0,43,0.00,CLR,CLR,0.00,WeatherDisplay:10.37,2013-04-22 16:27:00,
2013-04-22 12:32:00,57.8,36.6,31.26,SE,143,7.0,13.0,45,0.00,CLR,CLR,0.00,WeatherDisplay:10.37,2013-04-22 16:32:00,
2013-04-22 12:37:00,57.7,37.6,31.25,ESE,120,6.0,9.0,47,0.00,CLR,CLR,0.00,WeatherDisplay:10.37,2013-04-22 16:37:00,
2013-04-22 12:42:00,57.8,36.0,31.25,SE,124,2.0,12.0,44,0.00,CLR,CLR,0.00,WeatherDisplay:10.37,2013-04-22 16:42:00,
2013-04-22 12:52:00,58.7,37.4,31.25,ESE,116,6.0,10.0,45,0.00,CLR,CLR,0.00,WeatherDisplay:10.37,2013-04-22 16:52:00,
2013-04-22 12:57:00,59.3,38.5,31.25,ESE,120,2.0,9.0,46,0.00,CLR,CLR,0.00,WeatherDisplay:10.37,2013-04-22 16:57:00,
2013-04-22 13:02:00,59.7,38.8,31.25,SE,132,6.0,12.0,46,0.00,CLR,CLR,0.00,WeatherDisplay:10.37,2013-04-22 17:02:00,
2013-04-22 13:07:00,59.6,37.6,31.24,SSE,158,7.0,16.0,44,0.00,CLR,CLR,0.00,WeatherDisplay:10.37,2013-04-22 17:07:00,
2013-04-22 13:12:00,59.5,36.9,31.24,SE,146,7.0,14.0,43,0.00,CLR,CLR,0.00,WeatherDisplay:10.37,2013-04-22 17:12:00,
2013-04-22 13:17:00,59.3,38.0,31.24,ESE,122,7.0,12.0,45,0.00,CLR,CLR,0.00,WeatherDisplay:10.37,2013-04-22 17:17:00,
2013-04-22 13:22:00,59.5,37.0,31.23,ESE,109,5.0,13.0,43,0.00,CLR,CLR,0.00,WeatherDisplay:10.37,2013-04-22 17:22:00,
2013-04-22 13:27:00,59.7,38.9,31.23,ESE,109,8.0,12.0,46,0.00,CLR,CLR,0.00,WeatherDisplay:10.37,2013-04-22 17:27:00,
2013-04-22 13:32:00,59.5,37.0,31.23,SE,134,8.0,13.0,43,0.00,CLR,CLR,0.00,WeatherDisplay:10.37,2013-04-22 17:32:00,
2013-04-22 13:37:00,59.8,37.2,31.23,SE,139,8.0,14.0,43,0.00,CLR,CLR,0.00,WeatherDisplay:10.37,2013-04-22 17:37:00,
2013-04-22 13:42:00,60.0,38.6,31.22,SE,132,1.0,7.0,45,0.00,CLR,CLR,0.00,WeatherDisplay:10.37,2013-04-22 17:42:00,
2013-04-22 13:47:00,60.7,38.1,31.22,SE,129,7.0,12.0,43,0.00,CLR,CLR,0.00,WeatherDisplay:10.37,2013-04-22 17:47:00,
2013-04-22 13:52:00,60.7,39.2,31.22,East,91,2.0,6.0,45,0.00,CLR,CLR,0.00,WeatherDisplay:10.37,2013-04-22 17:52:00,
2013-04-22 13:57:00,60.7,38.1,31.22,SE,141,2.0,12.0,43,0.00,CLR,CLR,0.00,WeatherDisplay:10.37,2013-04-22 17:57:00,
2013-04-22 14:02:00,61.2,37.3,31.21,SSE,162,7.0,9.0,41,0.00,CLR,CLR,0.00,WeatherDisplay:10.37,2013-04-22 18:02:00,
2013-04-22 14:07:00,61.5,36.9,31.21,SE,140,7.0,14.0,40,0.00,CLR,CLR,0.00,WeatherDisplay:10.37,2013-04-22 18:07:00,
2013-04-22 14:12:00,61.1,37.8,31.21,SSE,158,3.0,12.0,42,0.00,CLR,CLR,0.00,WeatherDisplay:10.37,2013-04-22 18:12:00,
2013-04-22 14:17:00,61.4,37.5,31.21,South,173,3.0,6.0,41,0.00,CLR,CLR,0.00,WeatherDisplay:10.37,2013-04-22 18:17:00,
2013-04-22 14:22:00,61.6,38.3,31.21,South,177,7.0,14.0,42,0.00,CLR,CLR,0.00,WeatherDisplay:10.37,2013-04-22 18:22:00,
2013-04-22 14:27:00,61.6,37.7,31.21,South,178,5.0,12.0,41,0.00,CLR,CLR,0.00,WeatherDisplay:10.37,2013-04-22 18:27:00,
2013-04-22 14:32:00,62.1,37.5,31.20,SE,141,7.0,12.0,40,0.00,CLR,CLR,0.00,WeatherDisplay:10.37,2013-04-22 18:32:00,
2013-04-22 14:37:00,62.0,38.7,31.20,SE,131,8.0,18.0,42,0.00,CLR,CLR,0.00,WeatherDisplay:10.37,2013-04-22 18:37:00,
2013-04-22 14:42:00,61.8,37.8,31.20,SE,139,1.0,12.0,41,0.00,CLR,CLR,0.00,WeatherDisplay:10.37,2013-04-22 18:42:00,
2013-04-22 14:47:00,62.1,38.7,31.20,SE,135,7.0,15.0,42,0.00,CLR,CLR,0.00,WeatherDisplay:10.37,2013-04-22 18:47:00,
2013-04-22 14:52:00,62.1,36.2,31.20,SSE,168,5.0,14.0,38,0.00,CLR,CLR,0.00,WeatherDisplay:10.37,2013-04-22 18:52:00,
2013-04-22 14:57:00,62.2,36.3,31.20,SSE,149,1.0,12.0,38,0.00,CLR,CLR,0.00,WeatherDisplay:10.37,2013-04-22 18:57:00,
2013-04-22 15:02:00,62.1,36.2,31.19,ENE,76,0.0,7.0,38,0.00,CLR,CLR,0.00,WeatherDisplay:10.37,2013-04-22 19:02:00,
2013-04-22 15:07:00,62.5,36.5,31.19,SSE,160,8.0,17.0,38,0.00,CLR,CLR,0.00,WeatherDisplay:10.37,2013-04-22 19:07:00,
2013-04-22 15:12:00,62.9,38.2,31.19,South,169,7.0,12.0,40,0.00,CLR,CLR,0.00,WeatherDisplay:10.37,2013-04-22 19:12:00,
2013-04-22 15:17:00,63.4,37.3,31.19,SSE,163,9.0,14.0,38,0.00,CLR,CLR,0.00,WeatherDisplay:10.37,2013-04-22 19:17:00,
2013-04-22 15:22:00,63.1,37.1,31.18,SSE,147,1.0,10.0,38,0.00,CLR,CLR,0.00,WeatherDisplay:10.37,2013-04-22 19:22:00,
2013-04-22 15:27:00,63.0,37.0,31.18,SE,126,7.0,14.0,38,0.00,CLR,CLR,0.00,WeatherDisplay:10.37,2013-04-22 19:27:00,
2013-04-22 15:32:00,63.0,37.7,31.18,ESE,122,7.0,12.0,39,0.00,CLR,CLR,0.00,WeatherDisplay:10.37,2013-04-22 19:32:00,
2013-04-22 15:37:00,63.1,37.8,31.18,SSE,153,7.0,13.0,39,0.00,CLR,CLR,0.00,WeatherDisplay:10.37,2013-04-22 19:37:00,
2013-04-22 15:42:00,63.2,37.9,31.18,South,182,9.0,14.0,39,0.00,CLR,CLR,0.00,WeatherDisplay:10.37,2013-04-22 19:42:00,
2013-04-22 15:47:00,63.1,37.8,31.18,South,180,10.0,14.0,39,0.00,CLR,CLR,0.00,WeatherDisplay:10.37,2013-04-22 19:47:00,
2013-04-22 15:52:00,63.1,37.0,31.17,South,183,2.0,12.0,38,0.00,CLR,CLR,0.00,WeatherDisplay:10.37,2013-04-22 19:52:00,
2013-04-22 15:57:00,62.9,36.9,31.17,SSE,157,3.0,9.0,38,0.00,CLR,CLR,0.00,WeatherDisplay:10.37,2013-04-22 19:57:00,
2013-04-22 16:02:00,63.3,37.2,31.17,SE,131,9.0,15.0,38,0.00,CLR,CLR,0.00,WeatherDisplay:10.37,2013-04-22 20:02:00,
2013-04-22 16:07:00,63.2,37.2,31.17,ESE,115,1.0,13.0,38,0.00,CLR,CLR,0.00,WeatherDisplay:10.37,2013-04-22 20:07:00,
2013-04-22 16:12:00,63.3,37.3,31.16,SSE,154,12.0,18.0,38,0.00,CLR,CLR,0.00,WeatherDisplay:10.37,2013-04-22 20:12:00,
2013-04-22 16:17:00,63.7,36.2,31.16,SSE,165,7.0,15.0,36,0.00,CLR,CLR,0.00,WeatherDisplay:10.37,2013-04-22 20:17:00,
2013-04-22 16:22:00,64.1,38.6,31.16,SE,140,6.0,12.0,39,0.00,CLR,CLR,0.00,WeatherDisplay:10.37,2013-04-22 20:22:00,
2013-04-22 16:27:00,63.9,37.1,31.16,SE,127,0.0,10.0,37,0.00,CLR,CLR,0.00,WeatherDisplay:10.37,2013-04-22 20:27:00,
2013-04-22 16:32:00,64.6,39.1,31.15,SE,135,5.0,15.0,39,0.00,CLR,CLR,0.00,WeatherDisplay:10.37,2013-04-22 20:32:00,
2013-04-22 16:37:00,64.9,38.0,31.15,SE,128,8.0,12.0,37,0.00,CLR,CLR,0.00,WeatherDisplay:10.37,2013-04-22 20:37:00,
2013-04-22 16:42:00,64.5,38.9,31.15,SE,126,6.0,13.0,39,0.00,CLR,CLR,0.00,WeatherDisplay:10.37,2013-04-22 20:42:00,
2013-04-22 16:47:00,64.4,38.9,31.15,ESE,118,6.0,12.0,39,0.00,CLR,CLR,0.00,WeatherDisplay:10.37,2013-04-22 20:47:00,
2013-04-22 16:52:00,64.7,40.4,31.14,ESE,120,2.0,8.0,41,0.00,CLR,CLR,0.00,WeatherDisplay:10.37,2013-04-22 20:52:00,
2013-04-22 16:57:00,64.5,38.3,31.14,ESE,120,6.0,12.0,38,0.00,CLR,CLR,0.00,WeatherDisplay:10.37,2013-04-22 20:57:00,
2013-04-22 17:02:00,64.4,38.2,31.14,ESE,120,5.0,12.0,38,0.00,CLR,CLR,0.00,WeatherDisplay:10.37,2013-04-22 21:02:00,
2013-04-22 17:07:00,64.4,38.2,31.14,SE,128,2.0,7.0,38,0.00,CLR,CLR,0.00,WeatherDisplay:10.37,2013-04-22 21:07:00,
2013-04-22 17:12:00,64.7,38.5,31.13,SSE,148,3.0,9.0,38,0.00,CLR,CLR,0.00,WeatherDisplay:10.37,2013-04-22 21:12:00,
2013-04-22 17:17:00,64.7,37.1,31.14,SSE,154,8.0,13.0,36,0.00,CLR,CLR,0.00,WeatherDisplay:10.37,2013-04-22 21:17:00,
2013-04-22 17:22:00,64.3,37.5,31.13,SE,141,7.0,12.0,37,0.00,CLR,CLR,0.00,WeatherDisplay:10.37,2013-04-22 21:22:00,
2013-04-22 17:27:00,64.4,38.2,31.13,ESE,123,3.0,10.0,38,0.00,CLR,CLR,0.00,WeatherDisplay:10.37,2013-04-22 21:27:00,
2013-04-22 17:32:00,64.4,36.8,31.13,ESE,122,2.0,8.0,36,0.00,CLR,CLR,0.00,WeatherDisplay:10.37,2013-04-22 21:32:00,
2013-04-22 17:37:00,64.5,37.6,31.13,ESE,106,3.0,9.0,37,0.00,CLR,CLR,0.00,WeatherDisplay:10.37,2013-04-22 21:37:00,
2013-04-22 17:42:00,64.3,36.8,31.13,East,96,8.0,13.0,36,0.00,CLR,CLR,0.00,WeatherDisplay:10.37,2013-04-22 21:42:00,
2013-04-22 17:47:00,64.2,38.0,31.13,SE,133,5.0,10.0,38,0.00,CLR,CLR,0.00,WeatherDisplay:10.37,2013-04-22 21:47:00,
2013-04-22 17:52:00,64.4,37.5,31.13,SSE,152,3.0,8.0,37,0.00,CLR,CLR,0.00,WeatherDisplay:10.37,2013-04-22 21:52:00,
2013-04-22 17:57:00,64.4,36.8,31.13,SSE,151,1.0,10.0,36,0.00,CLR,CLR,0.00,WeatherDisplay:10.37,2013-04-22 21:57:00,
2013-04-22 18:02:00,64.8,39.2,31.13,SE,142,3.0,7.0,39,0.00,CLR,CLR,0.00,WeatherDisplay:10.37,2013-04-22 22:02:00,
2013-04-22 18:07:00,64.6,37.0,31.13,SSE,147,3.0,13.0,36,0.00,CLR,CLR,0.00,WeatherDisplay:10.37,2013-04-22 22:07:00,
2013-04-22 18:12:00,64.8,38.6,31.12,SSE,153,2.0,7.0,38,0.00,CLR,CLR,0.00,WeatherDisplay:10.37,2013-04-22 22:12:00,
2013-04-22 18:17:00,64.5,36.2,31.13,SE,127,7.0,10.0,35,0.00,CLR,CLR,0.00,WeatherDisplay:10.37,2013-04-22 22:17:00,
2013-04-22 18:22:00,64.1,35.8,31.13,ESE,123,7.0,13.0,35,0.00,CLR,CLR,0.00,WeatherDisplay:10.37,2013-04-22 22:22:00,
2013-04-22 18:27:00,63.9,37.8,31.12,SE,132,1.0,9.0,38,0.00,CLR,CLR,0.00,WeatherDisplay:10.37,2013-04-22 22:27:00,
2013-04-22 18:32:00,63.8,36.3,31.12,SE,134,3.0,9.0,36,0.00,CLR,CLR,0.00,WeatherDisplay:10.37,2013-04-22 22:32:00,
2013-04-22 18:37:00,63.6,36.2,31.12,SE,126,3.0,8.0,36,0.00,CLR,CLR,0.00,WeatherDisplay:10.37,2013-04-22 22:37:00,
2013-04-22 18:42:00,63.6,36.1,31.12,ESE,119,1.0,8.0,36,0.00,CLR,CLR,0.00,WeatherDisplay:10.37,2013-04-22 22:42:00,
2013-04-22 18:47:00,63.5,36.1,31.12,ESE,121,6.0,10.0,36,0.00,CLR,CLR,0.00,WeatherDisplay:10.37,2013-04-22 22:47:00,
2013-04-22 18:52:00,63.5,36.1,31.12,SE,133,6.0,8.0,36,0.00,CLR,CLR,0.00,WeatherDisplay:10.37,2013-04-22 22:52:00,
2013-04-22 18:57:00,63.4,36.0,31.12,SE,136,5.0,12.0,36,0.00,CLR,CLR,0.00,WeatherDisplay:10.37,2013-04-22 22:57:00,
2013-04-22 19:02:00,63.2,36.5,31.12,SE,139,6.0,15.0,37,0.00,CLR,CLR,0.00,WeatherDisplay:10.37,2013-04-22 23:02:00,
2013-04-22 19:07:00,63.1,37.7,31.12,SE,145,3.0,9.0,39,0.00,CLR,CLR,0.00,WeatherDisplay:10.37,2013-04-22 23:07:00,
2013-04-22 19:12:00,62.9,36.2,31.11,SE,136,5.0,9.0,37,0.00,CLR,CLR,0.00,WeatherDisplay:10.37,2013-04-22 23:12:00,
2013-04-22 19:17:00,62.8,35.4,31.11,SE,132,3.0,6.0,36,0.00,CLR,CLR,0.00,WeatherDisplay:10.37,2013-04-22 23:17:00,
2013-04-22 19:22:00,62.6,35.3,31.11,ESE,118,7.0,12.0,36,0.00,CLR,CLR,0.00,WeatherDisplay:10.37,2013-04-22 23:22:00,
2013-04-22 19:27:00,62.4,35.1,31.11,SE,128,5.0,9.0,36,0.00,CLR,CLR,0.00,WeatherDisplay:10.37,2013-04-22 23:27:00,
2013-04-22 19:32:00,62.3,34.9,31.11,SE,132,2.0,7.0,36,0.00,CLR,CLR,0.00,WeatherDisplay:10.37,2013-04-22 23:32:00,
2013-04-22 19:37:00,62.0,35.4,31.11,ESE,119,1.0,6.0,37,0.00,CLR,CLR,0.00,WeatherDisplay:10.37,2013-04-22 23:37:00,
2013-04-22 19:42:00,61.8,35.9,31.11,ESE,120,3.0,6.0,38,0.00,CLR,CLR,0.00,WeatherDisplay:10.37,2013-04-22 23:42:00,
2013-04-22 19:47:00,61.5,36.3,31.11,ESE,120,0.0,8.0,39,0.00,CLR,CLR,0.00,WeatherDisplay:10.37,2013-04-22 23:47:00,
2013-04-22 19:52:00,61.1,36.0,31.11,ESE,111,0.0,4.0,39,0.00,CLR,CLR,0.00,WeatherDisplay:10.37,2013-04-22 23:52:00,
2013-04-22 19:57:00,60.8,35.6,31.11,SE,127,0.0,5.0,39,0.00,CLR,CLR,0.00,WeatherDisplay:10.37,2013-04-22 23:57:00,
2013-04-22 20:02:00,60.3,37.1,31.11,SE,142,0.0,1.0,42,0.00,CLR,CLR,0.00,WeatherDisplay:10.37,2013-04-23 00:02:00,
2013-04-22 20:07:00,59.7,37.1,31.12,SE,145,0.0,0.0,43,0.00,CLR,CLR,0.00,WeatherDisplay:10.37,2013-04-23 00:07:00,
2013-04-22 20:12:00,58.9,37.6,31.12,SE,134,0.0,2.0,45,0.00,CLR,CLR,0.00,WeatherDisplay:10.37,2013-04-23 00:12:00,
2013-04-22 20:17:00,58.3,36.5,31.12,ESE,103,0.0,2.0,44,0.00,CLR,CLR,0.00,WeatherDisplay:10.37,2013-04-23 00:17:00,
2013-04-22 20:22:00,57.8,37.1,31.12,ENE,74,0.0,0.0,46,0.00,CLR,CLR,0.00,WeatherDisplay:10.37,2013-04-23 00:22:00,
2013-04-22 20:27:00,57.2,37.1,31.12,ENE,74,0.0,1.0,47,0.00,CLR,CLR,0.00,WeatherDisplay:10.37,2013-04-23 00:27:00,
2013-04-22 20:32:00,56.7,35.6,31.12,East,96,0.0,5.0,45,0.00,CLR,CLR,0.00,WeatherDisplay:10.37,2013-04-23 00:32:00,
2013-04-22 20:37:00,56.6,35.5,31.12,ESE,121,0.0,1.0,45,0.00,CLR,CLR,0.00,WeatherDisplay:10.37,2013-04-23 00:37:00,
2013-04-22 20:42:00,56.6,35.5,31.12,East,96,0.0,5.0,45,0.00,CLR,CLR,0.00,WeatherDisplay:10.37,2013-04-23 00:42:00,
2013-04-22 20:47:00,56.8,35.7,31.12,East,98,0.0,5.0,45,0.00,CLR,CLR,0.00,WeatherDisplay:10.37,2013-04-23 00:47:00,
2013-04-22 20:52:00,56.6,36.0,31.12,East,101,0.0,2.0,46,0.00,CLR,CLR,0.00,WeatherDisplay:10.37,2013-04-23 00:52:00,
2013-04-22 20:57:00,56.1,35.1,31.12,East,101,1.0,4.0,45,0.00,CLR,CLR,0.00,WeatherDisplay:10.37,2013-04-23 00:57:00,
2013-04-22 21:02:00,55.9,35.9,31.12,East,100,0.0,1.0,47,0.00,CLR,CLR,0.00,WeatherDisplay:10.37,2013-04-23 01:02:00,
2013-04-22 21:07:00,55.4,35.5,31.12,ESE,113,1.0,5.0,47,0.00,CLR,CLR,0.00,WeatherDisplay:10.37,2013-04-23 01:07:00,
2013-04-22 21:12:00,55.4,34.9,31.13,ESE,106,3.0,8.0,46,0.00,CLR,CLR,0.00,WeatherDisplay:10.37,2013-04-23 01:12:00,
2013-04-22 21:17:00,55.6,35.1,31.13,ESE,114,1.0,6.0,46,0.00,CLR,CLR,0.00,WeatherDisplay:10.37,2013-04-23 01:17:00,
2013-04-22 21:22:00,55.5,35.0,31.13,ESE,113,0.0,5.0,46,0.00,CLR,CLR,0.00,WeatherDisplay:10.37,2013-04-23 01:22:00,
2013-04-22 21:27:00,55.3,34.3,31.13,ESE,109,0.0,1.0,45,0.00,CLR,CLR,0.00,WeatherDisplay:10.37,2013-04-23 01:27:00,
2013-04-22 21:32:00,55.0,34.0,31.13,ESE,118,1.0,4.0,45,0.00,CLR,CLR,0.00,WeatherDisplay:10.37,2013-04-23 01:32:00,
2013-04-22 21:37:00,54.7,34.3,31.13,ESE,121,0.0,4.0,46,0.00,CLR,CLR,0.00,WeatherDisplay:10.37,2013-04-23 01:37:00,
2013-04-22 21:42:00,54.5,34.1,31.13,ESE,109,1.0,5.0,46,0.00,CLR,CLR,0.00,WeatherDisplay:10.37,2013-04-23 01:42:00,
2013-04-22 21:47:00,54.5,33.6,31.13,ESE,107,0.0,4.0,45,0.00,CLR,CLR,0.00,WeatherDisplay:10.37,2013-04-23 01:47:00,
2013-04-22 21:52:00,54.6,34.2,31.13,ESE,113,0.0,2.0,46,0.00,CLR,CLR,0.00,WeatherDisplay:10.37,2013-04-23 01:52:00,
2013-04-22 21:57:00,54.4,34.6,31.13,East,97,0.0,4.0,47,0.00,CLR,CLR,0.00,WeatherDisplay:10.37,2013-04-23 01:57:00,
2013-04-22 22:02:00,54.1,33.2,31.13,East,93,0.0,6.0,45,0.00,CLR,CLR,0.00,WeatherDisplay:10.37,2013-04-23 02:02:00,
2013-04-22 22:07:00,54.1,32.6,31.13,ESE,103,1.0,5.0,44,0.00,CLR,CLR,0.00,WeatherDisplay:10.37,2013-04-23 02:07:00,
2013-04-22 22:12:00,54.2,33.3,31.13,ESE,106,0.0,5.0,45,0.00,CLR,CLR,0.00,WeatherDisplay:10.37,2013-04-23 02:12:00,
2013-04-22 22:17:00,54.3,32.8,31.13,SE,130,1.0,5.0,44,0.00,CLR,CLR,0.00,WeatherDisplay:10.37,2013-04-23 02:17:00,
2013-04-22 22:22:00,54.1,32.6,31.13,SE,131,2.0,7.0,44,0.00,CLR,CLR,0.00,WeatherDisplay:10.37,2013-04-23 02:22:00,
2013-04-22 22:27:00,53.9,32.5,31.13,ESE,116,0.0,5.0,44,0.00,CLR,CLR,0.00,WeatherDisplay:10.37,2013-04-23 02:27:00,
2013-04-22 22:32:00,53.7,32.3,31.13,ESE,107,0.0,4.0,44,0.00,CLR,CLR,0.00,WeatherDisplay:10.37,2013-04-23 02:32:00,
2013-04-22 22:37:00,53.5,32.7,31.13,ESE,119,0.0,1.0,45,0.00,CLR,CLR,0.00,WeatherDisplay:10.37,2013-04-23 02:37:00,
2013-04-22 22:42:00,53.2,32.9,31.12,East,92,0.0,4.0,46,0.00,CLR,CLR,0.00,WeatherDisplay:10.37,2013-04-23 02:42:00,
2013-04-22 22:47:00,52.8,32.6,31.12,ESE,110,0.0,5.0,46,0.00,CLR,CLR,0.00,WeatherDisplay:10.37,2013-04-23 02:47:00,
2013-04-22 22:52:00,52.9,31.6,31.12,East,97,0.0,7.0,44,0.00,CLR,CLR,0.00,WeatherDisplay:10.37,2013-04-23 02:52:00,
2013-04-22 22:57:00,52.8,33.1,31.12,East,88,0.0,1.0,47,0.00,CLR,CLR,0.00,WeatherDisplay:10.37,2013-04-23 02:57:00,
2013-04-22 23:02:00,52.5,32.8,31.12,East,95,0.0,4.0,47,0.00,CLR,CLR,0.00,WeatherDisplay:10.37,2013-04-23 03:02:00,
2013-04-22 23:07:00,52.0,32.9,31.12,East,91,1.0,6.0,48,0.00,CLR,CLR,0.00,WeatherDisplay:10.37,2013-04-23 03:07:00,
2013-04-22 23:12:00,51.6,32.0,31.12,ESE,107,0.0,8.0,47,0.00,CLR,CLR,0.00,WeatherDisplay:10.37,2013-04-23 03:12:00,
2013-04-22 23:17:00,51.7,31.6,31.12,ESE,119,1.0,7.0,46,0.00,CLR,CLR,0.00,WeatherDisplay:10.37,2013-04-23 03:17:00,
2013-04-22 23:22:00,51.9,30.7,31.12,ESE,112,1.0,7.0,44,0.00,CLR,CLR,0.00,WeatherDisplay:10.37,2013-04-23 03:22:00,
2013-04-22 23:27:00,52.1,31.9,31.12,ESE,117,0.0,5.0,46,0.00,CLR,CLR,0.00,WeatherDisplay:10.37,2013-04-23 03:27:00,
2013-04-22 23:32:00,52.0,30.7,31.12,SE,124,3.0,6.0,44,0.00,CLR,CLR,0.00,WeatherDisplay:10.37,2013-04-23 03:32:00,
2013-04-22 23:37:00,52.1,30.3,31.12,SE,131,6.0,8.0,43,0.00,CLR,CLR,0.00,WeatherDisplay:10.37,2013-04-23 03:37:00,
2013-04-22 23:42:00,52.1,30.3,31.12,SE,136,1.0,6.0,43,0.00,CLR,CLR,0.00,WeatherDisplay:10.37,2013-04-23 03:42:00,
2013-04-22 23:47:00,52.0,30.1,31.12,SE,145,3.0,8.0,43,0.00,CLR,CLR,0.00,WeatherDisplay:10.37,2013-04-23 03:47:00,
2013-04-22 23:52:00,51.9,30.1,31.12,SSE,147,1.0,12.0,43,0.00,CLR,CLR,0.00,WeatherDisplay:10.37,2013-04-23 03:52:00,
2013-04-22 23:57:00,51.8,30.0,31.12,SE,146,5.0,12.0,43,0.00,CLR,CLR,0.00,WeatherDisplay:10.37,2013-04-23 03:57:00,